[[{"header":{"parameterUnit":"m.s-1","parameterCategory":1,"la1":30.2991,"la2":30.254,"lo1":-89.0895,"lo2":-89.0444,"dy":0.0017,"dx":0.0017,"nx":28,"ny":28,"refTime":"2023-09-19T03:00:00:Z","depth":0,"parameterNumber":2,"parameterNumberName":"U-component_of_WINDS"},"data":[0,0,0,0,0,0,0,0,0,0,0,0,0,0,0,0,0,0,0,0,0,0,0,0,0,0,0,0,0,0,0,0,0,0,0,0,0,0,0,0,0,0,0,0,0,0,0,0,0,0,0,0,0,0,0,0,0,0,-6.2459,-6.2459,0,-6.2462,-6.2462,-6.2462,-6.2291,-6.2286,-6.2282,-6.2277,-6.2283,-6.2287,-6.2291,0,0,0,0,0,0,0,0,0,0,0,0,0,-6.2302,-6.2306,-6.2459,-6.2459,-6.2459,-6.2462,-6.2462,-6.2462,-6.2292,-6.2286,-6.228,-6.2275,-6.2281,-6.2287,-6.2292,0,0,0,0,0,0,0,0,0,0,0,0,0,-6.2345,-6.2307,-6.2459,-6.2374,-6.2366,-6.2462,-6.2462,-6.2462,-6.2293,-6.2286,-6.2279,-6.2273,-6.228,-6.2286,-6.2293,-6.247,0,0,-6.2313,-6.2316,0,0,0,0,0,0,0,0,-6.2343,-6.2351,-6.2386,-6.238,-6.2372,-6.2369,-6.2409,-6.2465,-6.2294,-6.2321,-6.2277,-6.2269,-6.2317,-6.232,-6.2336,-6.2471,-6.2471,-6.2313,-6.2317,-6.232,-6.2322,0,0,0,0,0,0,0,-6.234,-6.235,-6.246,-6.2387,-6.2378,-6.2335,-6.2334,-6.2419,-6.2357,-6.2318,-6.2305,-6.2308,-6.2312,-6.233,-6.2335,-6.2471,-6.2313,-6.2319,-6.2323,-6.2326,-6.2745,-6.2752,0,0,0,0,0,0,-6.2348,-6.2348,-6.246,-6.246,-6.234,-6.2344,-6.2342,-6.2377,-6.2356,-6.2346,-6.2314,-6.23,-6.2322,-6.2327,-6.2334,-6.2535,-6.232,-6.2326,-6.233,-6.2738,-6.2747,-6.2755,0,0,0,0,0,0,-6.2346,-6.236,-6.246,-6.2401,-6.241,-6.2354,-6.2394,-6.2381,-6.2398,-6.2353,-6.2341,-6.2344,-6.2317,-6.2325,-6.2436,-6.2533,-6.2329,-6.2335,-6.273,-6.2741,-6.2751,-6.2943,0,0,0,0,0,0,-6.2342,-6.236,-6.2428,-6.2404,-6.2414,-6.2562,-6.24,-6.2386,-6.241,-6.2392,-6.2378,-6.2369,-6.2312,-6.2427,-6.2443,-6.2539,-6.234,-6.2721,-6.2735,-6.2747,-6.2927,-6.2959,-6.2986,0,0,0,0,0,-6.2337,-6.2483,-6.2432,-6.2446,-6.2497,-6.2568,-6.2574,-6.2505,-6.2419,-6.2485,-6.2455,-6.2369,-6.2522,-6.244,-6.2456,-6.2556,-6.2714,-6.2731,-6.2746,-6.2914,-6.2953,-6.2985,0,0,0,0,0,0,-6.2522,-6.2479,-6.2421,-6.2564,-6.2571,-6.2539,-6.2621,-6.2549,-6.2581,-6.2563,-6.2477,-6.2475,-6.2599,-6.2589,-6.2499,-6.2724,-6.2602,-6.2622,-6.2724,-6.276,-6.2789,-6.2786,-6.2346,0,0,0,0,0,-6.2579,-6.264,-6.26,-6.273,-6.2736,-6.2679,-6.2707,-6.2653,-6.2657,-6.2659,-6.2638,-6.2645,-6.2693,-6.2728,-6.2771,-6.2927,-6.2918,-6.3003,-6.3032,-6.3056,-6.3073,-6.3149,-6.3184,-6.2808,-6.2808,-6.2807,0,0,-6.2698,-6.2682,-6.2726,-6.2766,-6.2765,-6.2829,-6.2682,-6.2758,-6.2803,-6.2671,-6.2772,-6.2758,-6.276,-6.2893,-6.295,-6.2888,-6.3176,-6.3077,-6.3097,-6.31,-6.3169,-6.3205,-6.3236,-6.2819,-6.2817,-6.2815,0,0,-6.2945,-6.2943,-6.3046,-6.3048,-6.3047,-6.3008,-6.3033,-6.3012,-6.2996,-6.3097,-6.2997,-6.3051,-6.3139,-6.3142,-6.3156,-6.3403,-6.3323,-6.342,-6.3569,-6.3645,-6.3674,-6.37,-6.3781,-6.3813,-6.3438,-6.3438,-6.3439,0,-6.3093,-6.3184,-6.311,-6.3189,-6.3208,-6.3091,-6.3194,-6.32,-6.3214,-6.3229,-6.316,-6.3263,-6.3258,-6.3386,-6.3446,-6.3464,-6.3487,-6.3418,-6.3676,-6.3701,-6.3724,-6.3801,-6.3832,-6.3449,-6.3448,-6.3447,-6.3446,0,-6.3362,-6.3428,-6.3513,-6.3526,-6.3555,-6.3647,-6.3584,-6.3623,-6.3567,-6.3535,-6.3636,-6.3625,-6.366,-6.3689,-6.3637,-6.381,-6.377,-6.3691,-6.3566,-6.3772,-6.3842,-6.3872,-6.3465,-6.3461,-6.3458,-6.3455,0,0,-6.3724,-6.3693,-6.3724,-6.3726,-6.3717,-6.3765,-6.3852,-6.3885,-6.3916,-6.3932,-6.3998,-6.4074,-6.3998,-6.4014,-6.3961,-6.4029,-6.4217,-6.3939,-6.3938,-6.3985,-6.44,-6.4455,-6.449,-6.4166,-6.4172,-6.4176,-6.4397,0,-6.3957,-6.4099,-6.4033,-6.4182,-6.4238,-6.4128,-6.4202,-6.4204,-6.4176,-6.422,-6.419,-6.4241,-6.4142,-6.4149,-6.4211,-6.4181,-6.4298,-6.4165,-6.4224,-6.4227,-6.4219,-6.4528,-6.4587,-6.4796,-6.4425,-6.443,-6.4433,0,-6.4248,-6.4271,-6.4425,-6.44,-6.4421,-6.4489,-6.4511,-6.4556,-6.4555,-6.453,-6.4546,-6.4477,-6.4558,-6.4439,-6.4547,-6.4457,-6.4479,-6.4468,-6.4474,-6.4471,-6.4338,-6.4527,-6.4862,-6.489,-6.4477,-6.4474,-6.4471,0,-6.4487,-6.4557,-6.4656,-6.4663,-6.4638,-6.4687,-6.468,-6.4672,-6.4695,-6.4716,-6.4729,-6.4761,-6.4777,-6.4803,-6.4744,-6.4664,-6.4858,-6.4735,-6.4835,-6.4837,-6.4876,-6.4873,-6.5211,-6.4902,-6.4902,-6.4901,-6.49,0,-6.475,-6.4847,-6.4761,-6.4822,-6.4926,-6.4851,-6.4956,-6.4937,-6.493,-6.4984,-6.4894,-6.4946,-6.4868,-6.4913,-6.4868,-6.496,-6.4971,-6.495,-6.4935,-6.4954,-6.4955,-6.4961,-6.4942,-6.4909,-6.4907,-6.4906,-6.4904,0,-6.5031,-6.4979,-6.5078,-6.5047,-6.5041,-6.5118,-6.509,-6.5144,-6.5111,-6.518,-6.5192,-6.5139,-6.5186,-6.5131,-6.5176,-6.5145,-6.5268,-6.5237,-6.5267,-6.5255,-6.5356,-6.5345,-6.5704,-6.5745,-6.5417,-6.5421,-6.5423,0,-6.5199,-6.527,-6.5245,-6.5273,-6.527,-6.5318,-6.534,-6.5269,-6.5295,-6.5298,-6.5351,-6.5391,-6.5417,-6.5499,-6.5464,-6.5497,-6.546,-6.5584,-6.5464,-6.5478,-6.5453,-6.5446,-6.545,-6.5606,-6.561,-6.5613,-6.5616,0,-6.55,-6.547,-6.5504,-6.5528,-6.5556,-6.5573,-6.5583,-6.5612,-6.5538,-6.5572,-6.5618,-6.5639,-6.5683,-6.5721,-6.5744,-6.5736,-6.5662,-6.5655,-6.5678,-6.5694,-6.5706,-6.5693,-6.5326,-6.5645,-6.5642,-6.564,-6.5639,-6.5638,-6.5724,-6.5779,-6.5768,-6.5808,-6.5808,-6.5819,-6.5865,-6.5837,-6.5874,-6.5901,-6.5859,-6.5915,-6.591,-6.5932,-6.5933,-6.5975,-6.5922,-6.5958,-6.5966,-6.5974,-6.5985,-6.5706,-6.598,-6.5979,-6.5979,-6.5978,-6.5977,0,-6.6013,-6.6,-6.6038,-6.6052,-6.6084,-6.6013,-6.602,-6.605,-6.61,-6.6102,-6.6129,-6.6181,-6.6218,-6.6187,-6.6217,-6.6257,-6.6224,-6.6266,-6.6259,-6.6257,-6.6035,-6.6008,-6.6292,-6.6292,-6.6292,-6.6292,-6.6292,-6.6292,-6.6166,-6.6253,-6.6222,-6.6308,-6.6295,-6.6348,-6.6357,-6.6366,-6.6365,-6.6425,-6.6455,-6.6434,-6.6422,-6.645,-6.648,-6.647,-6.6482,-6.6536,-6.6513,-6.6305,-6.6273,-6.6244,-6.6217,-6.6541,-6.6541,-6.673,-6.6732,-6.6733]},{"header":{"parameterUnit":"m.s-1","parameterCategory":1,"la1":30.2991,"la2":30.254,"lo1":-89.0895,"lo2":-89.0444,"dy":0.0017,"dx":0.0017,"nx":28,"ny":28,"refTime":"2023-09-19T03:00:00:Z","depth":0,"parameterNumber":3,"parameterNumberName":"V-component_of_WINDS"},"data":[0,0,0,0,0,0,0,0,0,0,0,0,0,0,0,0,0,0,0,0,0,0,0,0,0,0,0,0,0,0,0,0,0,0,0,0,0,0,0,0,0,0,0,0,0,0,0,0,0,0,0,0,0,0,0,0,0,0,1.4269,1.427,0,1.4402,1.4403,1.4405,1.4365,1.4362,1.4359,1.4356,1.4492,1.4497,1.4504,0,0,0,0,0,0,0,0,0,0,0,0,0,1.3982,1.3987,1.4268,1.427,1.4272,1.4401,1.4403,1.4405,1.4365,1.4362,1.4358,1.4355,1.4489,1.4497,1.4504,0,0,0,0,0,0,0,0,0,0,0,0,0,1.4109,1.3989,1.4268,1.4268,1.4269,1.4401,1.4403,1.4405,1.4366,1.4362,1.4357,1.4354,1.4487,1.4496,1.4505,1.4646,0,0,1.4533,1.4538,0,0,0,0,0,0,0,0,1.4102,1.412,1.4266,1.4268,1.427,1.4362,1.4351,1.4486,1.4367,1.4329,1.4356,1.4352,1.4452,1.4464,1.4498,1.4652,1.4658,1.4534,1.454,1.4544,1.4547,0,0,0,0,0,0,0,1.4093,1.4114,1.4321,1.4268,1.427,1.4261,1.4275,1.4377,1.4412,1.4332,1.4329,1.4346,1.4452,1.4489,1.4501,1.466,1.4534,1.4542,1.4548,1.4552,1.4939,1.4944,0,0,0,0,0,0,1.4083,1.4107,1.4317,1.4325,1.4174,1.427,1.4285,1.4337,1.4411,1.4418,1.4349,1.4343,1.4475,1.449,1.4505,1.4677,1.4544,1.4553,1.4558,1.4935,1.494,1.4946,0,0,0,0,0,0,1.4077,1.4102,1.4311,1.4216,1.4241,1.4279,1.4338,1.4341,1.4378,1.4424,1.443,1.438,1.4472,1.4492,1.4612,1.4681,1.4557,1.4565,1.4929,1.4936,1.4943,1.5019,0,0,0,0,0,0,1.4069,1.4101,1.4154,1.4217,1.4247,1.4416,1.4342,1.4347,1.4395,1.4388,1.4455,1.4462,1.4471,1.4598,1.4621,1.4691,1.4572,1.4923,1.4932,1.4941,1.501,1.5028,1.5043,0,0,0,0,0,1.4059,1.4169,1.4156,1.4182,1.4314,1.442,1.4437,1.4445,1.44,1.4454,1.4484,1.446,1.467,1.4611,1.4636,1.471,1.4919,1.493,1.494,1.5003,1.5024,1.5042,0,0,0,0,0,0,1.4111,1.4177,1.4164,1.4297,1.4353,1.4413,1.4481,1.4467,1.4536,1.4527,1.4534,1.455,1.4673,1.4703,1.4637,1.4852,1.4788,1.4804,1.4827,1.4847,1.4863,1.4853,1.458,0,0,0,0,0,1.4138,1.4219,1.4272,1.4384,1.4413,1.4443,1.4489,1.4491,1.4549,1.4572,1.4611,1.4668,1.4747,1.4799,1.4874,1.5015,1.503,1.5079,1.5095,1.5108,1.5122,1.5201,1.5224,1.4981,1.4981,1.498,0,0,1.4194,1.4241,1.429,1.4396,1.4439,1.4523,1.4463,1.4553,1.4616,1.4586,1.4702,1.4733,1.4797,1.4929,1.4989,1.4958,1.5193,1.5121,1.5131,1.5138,1.5215,1.5238,1.5258,1.4988,1.4987,1.4985,0,0,1.434,1.4383,1.4482,1.4528,1.4596,1.4615,1.464,1.4702,1.4722,1.4839,1.4819,1.4894,1.5029,1.5077,1.5119,1.5288,1.5269,1.5312,1.5396,1.5474,1.5493,1.551,1.5572,1.5594,1.5326,1.5326,1.5326,0,1.4402,1.4527,1.4535,1.4629,1.4677,1.4655,1.4757,1.4801,1.489,1.4924,1.4888,1.5061,1.5102,1.5246,1.5288,1.5322,1.5351,1.5304,1.5489,1.5507,1.5523,1.5582,1.5605,1.5331,1.5331,1.533,1.533,0,1.46,1.4688,1.476,1.4848,1.4904,1.5001,1.5025,1.5081,1.508,1.5103,1.5224,1.5275,1.5361,1.5395,1.5393,1.554,1.552,1.5487,1.5423,1.5551,1.5607,1.5629,1.5338,1.5337,1.5335,1.5334,0,0,1.478,1.4874,1.49,1.4941,1.5016,1.5084,1.5182,1.5267,1.5316,1.5379,1.5462,1.5579,1.555,1.5598,1.5602,1.567,1.5804,1.563,1.5632,1.5662,1.5971,1.5996,1.6022,1.5792,1.5796,1.58,1.5966,0,1.4933,1.5105,1.5117,1.5272,1.5354,1.5337,1.5422,1.5478,1.5504,1.5578,1.5606,1.569,1.5645,1.5674,1.5741,1.5773,1.5866,1.5761,1.587,1.5874,1.5854,1.6051,1.6076,1.6231,1.5988,1.5992,1.5994,0,1.5134,1.5205,1.5369,1.5435,1.547,1.5546,1.5628,1.5698,1.5762,1.5776,1.5832,1.5828,1.5929,1.5863,1.6004,1.5932,1.5978,1.6001,1.6007,1.6018,1.5942,1.6067,1.628,1.6304,1.6028,1.6026,1.6023,0,1.5251,1.5387,1.5504,1.5539,1.5619,1.5673,1.5709,1.5769,1.5821,1.5892,1.5926,1.6008,1.6053,1.6117,1.6136,1.6085,1.6277,1.6211,1.6293,1.6293,1.6334,1.6331,1.6558,1.6362,1.6362,1.6361,1.6361,0,1.5421,1.5522,1.5558,1.5629,1.5743,1.5757,1.5869,1.5902,1.5956,1.6035,1.6025,1.6099,1.6118,1.6197,1.6212,1.6328,1.6348,1.6363,1.6366,1.6365,1.6363,1.6394,1.6384,1.6367,1.6366,1.6365,1.6364,0,1.557,1.5597,1.5724,1.579,1.5809,1.5891,1.5948,1.6018,1.6043,1.6143,1.6167,1.6207,1.6299,1.6324,1.6434,1.6444,1.6581,1.6574,1.656,1.656,1.6641,1.6634,1.6896,1.6932,1.6712,1.6714,1.6716,0,1.5677,1.5755,1.583,1.5883,1.5922,1.6006,1.6059,1.6077,1.6133,1.6214,1.6275,1.6366,1.6439,1.6587,1.6627,1.6711,1.6707,1.6793,1.6719,1.6716,1.671,1.6705,1.6714,1.6807,1.6809,1.6811,1.6813,0,1.5864,1.5875,1.5952,1.6037,1.6101,1.6168,1.6232,1.6275,1.6302,1.6366,1.6461,1.6518,1.6632,1.6723,1.681,1.6847,1.6836,1.6836,1.686,1.6859,1.6848,1.6857,1.6599,1.6829,1.6828,1.6827,1.6826,1.6825,1.5996,1.6066,1.6131,1.6219,1.627,1.633,1.64,1.6436,1.6515,1.6609,1.6615,1.6718,1.6783,1.6898,1.6941,1.7023,1.6997,1.7031,1.704,1.7048,1.7056,1.6835,1.7039,1.7038,1.7038,1.7037,1.7037,0,1.6185,1.6226,1.6307,1.6398,1.6468,1.6452,1.6523,1.6582,1.6674,1.6735,1.6809,1.6919,1.7009,1.7056,1.7146,1.7202,1.7199,1.7225,1.7221,1.7231,1.7073,1.7044,1.7226,1.7226,1.7226,1.7226,1.7226,1.7226,1.6291,1.6409,1.6428,1.6571,1.6612,1.6714,1.6756,1.6813,1.6863,1.6987,1.7062,1.7092,1.715,1.7244,1.7326,1.7337,1.7371,1.7401,1.741,1.7261,1.7242,1.7223,1.7196,1.7408,1.7408,1.7561,1.7563,1.7564]}]]